This demonstration page uses our WeatherBlox Daily Observations layout. Learn more.

Left ArrowRight Arrow

Hourly Observations for August 27, 2020

Temp ( °F °C ) Dew Point ( °F °C ) Humidity (%) Winds ( mph kmh ) Pressure ( in mb ) Visibility ( mi km ) Precip ( " mm )
12:53 am 00:53 Clear 72 22.2 59 15 64 64 S 5 7 29.81 1010 10 16 0.00 0.00
1:53 am 01:53 Clear 72 22.2 59 15 64 64 S 6 9 29.81 1010 10 16 0.00 0.00
2:53 am 02:53 Clear 71 21.7 60 15.6 68 68 S 7 11 29.80 1009 10 16 0.00 0.00
3:53 am 03:53 Clear 69 20.6 60 15.6 73 73 S 8 13 29.79 1009 10 16 0.00 0.00
4:53 am 04:53 Clear 70 21.1 64 17.8 82 82 S 8 13 29.78 1009 10 16 0.00 0.00
5:53 am 05:53 Clear 71 21.7 66 18.9 84 84 S 8 13 29.78 1008 10 16 0.00 0.00
6:53 am 06:53 Clear 70 21.1 66 18.9 87 87 S 7 11 29.79 1009 10 16 0.00 0.00
7:53 am 07:53 Sunny 71 21.7 66 18.9 84 84 S 7 11 29.80 1009 10 16 0.00 0.00
8:53 am 08:53 Sunny 73 22.8 67 19.4 81 81 SSW 10 17 29.81 1010 10 16 0.00 0.00
9:53 am 09:53 Sunny 76 24.4 67 19.4 74 74 SSW 10 17 29.82 1010 10 16 0.00 0.00
10:53 am 10:53 Sunny 82 27.8 68 20 63 63 SW 6 9 29.83 1010 10 16 0.00 0.00
11:53 am 11:53 Sunny 86 30 68 20 55 55 SSW 8 13 29.82 1010 10 16 0.00 0.00
12:53 pm 12:53 Sunny 89 31.7 66 18.9 47 47 S 10 17 29.81 1009 10 16 0.00 0.00
1:53 pm 13:53 Sunny 91 32.8 67 19.4 45 45 VRB 7 11 29.79 1009 10 16 0.00 0.00
2:53 pm 14:53 Sunny 93 33.9 66 18.9 41 41 SSE 9 15 29.79 1009 10 16 0.00 0.00
3:53 pm 15:53 Sunny 94 34.4 66 18.9 40 40 S 14 22 29.77 1008 10 16 0.00 0.00
4:53 pm 16:53 Sunny 95 35 66 18.9 39 39 S 10 17 29.75 1008 10 16 0.00 0.00
5:53 pm 17:53 Sunny 94 34.4 65 18.3 38 38 S 12 19 29.74 1007 10 16 0.00 0.00
6:53 pm 18:53 Sunny 92 33.3 63 17.2 38 38 SSE 7 11 29.75 1007 10 16 0.00 0.00
7:53 pm 19:53 Sunny 86 30 70 21.1 59 59 SE 12 19 29.75 1008 10 16 0.00 0.00
8:53 pm 20:53 Clear 83 28.3 69 20.6 63 63 SE 10 17 29.76 1008 10 16 0.00 0.00
9:53 pm 21:53 Clear 81 27.2 69 20.6 67 67 SE 12 19 29.76 1008 10 16 0.00 0.00
10:53 pm 22:53 Clear 79 26.1 68 20 69 69 SSE 8 13 29.75 1008 10 16 0.00 0.00
11:53 pm 23:53 Clear 77 25 67 19.4 71 71 S 8 13 29.75 1007 10 16 0.00 0.00

Powered by AerisWeather